TimeEST,TemperatureF,Dew PointF,Humidity,Sea Level PressureIn,VisibilityMPH,Wind Direction,Wind SpeedMPH,Gust SpeedMPH,PrecipitationIn,Events,Conditions,WindDirDegrees,DateUTC
12:53 AM,30.0,15.1,54,30.06,10.0,Calm,Calm,-,N/A,,Clear,0,2013-03-05 05:53:00
2:53 AM,30.0,15.1,54,30.06,10.0,Calm,Calm,-,N/A,,Clear,0,2013-03-05 07:53:00
3:53 AM,34.0,15.1,46,30.06,10.0,SW,4.6,-,N/A,,Clear,220,2013-03-05 08:53:00
4:53 AM,32.0,15.1,50,30.06,10.0,Calm,Calm,-,N/A,,Clear,0,2013-03-05 09:53:00
5:53 AM,28.9,17.1,61,30.07,10.0,ENE,4.6,-,N/A,,Clear,60,2013-03-05 10:53:00
6:53 AM,28.9,18.0,64,30.08,10.0,Calm,Calm,-,N/A,,Mostly Cloudy,0,2013-03-05 11:53:00
8:53 AM,35.1,18.0,50,30.08,10.0,North,4.6,-,N/A,,Clear,10,2013-03-05 13:53:00
9:53 AM,37.9,18.0,45,30.07,10.0,Calm,Calm,-,N/A,,Clear,0,2013-03-05 14:53:00
10:53 AM,39.9,18.0,41,30.03,10.0,Calm,Calm,-,N/A,,Clear,0,2013-03-05 15:53:00
11:53 AM,43.0,17.1,35,30.03,10.0,Calm,Calm,-,N/A,,Clear,0,2013-03-05 16:53:00
12:53 PM,45.0,17.1,33,30.00,10.0,Variable,3.5,-,N/A,,Clear,0,2013-03-05 17:53:00
1:53 PM,46.0,14.0,28,29.97,10.0,ENE,5.8,-,N/A,,Clear,60,2013-03-05 18:53:00
2:53 PM,48.0,12.0,24,29.92,10.0,Variable,4.6,-,N/A,,Scattered Clouds,0,2013-03-05 19:53:00
3:53 PM,46.9,10.9,23,29.92,10.0,ENE,5.8,-,N/A,,Overcast,70,2013-03-05 20:53:00
4:53 PM,46.0,9.0,22,29.91,10.0,East,6.9,-,N/A,,Overcast,80,2013-03-05 21:53:00
5:53 PM,45.0,16.0,31,29.91,10.0,East,9.2,-,N/A,,Overcast,80,2013-03-05 22:53:00
6:53 PM,44.1,16.0,32,29.89,10.0,East,6.9,-,N/A,,Overcast,80,2013-03-05 23:53:00
7:53 PM,43.0,16.0,34,29.89,10.0,East,6.9,-,N/A,,Overcast,90,2013-03-06 00:53:00
8:53 PM,43.0,19.0,38,29.86,10.0,East,9.2,-,N/A,,Overcast,90,2013-03-06 01:53:00
9:53 PM,41.0,18.0,40,29.85,10.0,ESE,8.1,-,N/A,,Overcast,110,2013-03-06 02:53:00
10:53 PM,41.0,18.0,40,29.83,10.0,Variable,3.5,-,N/A,,Overcast,0,2013-03-06 03:53:00
11:24 PM,37.4,26.6,65,29.82,2.5,SE,9.2,20.7,0.00,Snow,Light Snow,130,2013-03-06 04:24:00
11:36 PM,35.6,28.4,75,29.82,1.8,ESE,10.4,20.7,0.00,Snow,Light Snow,110,2013-03-06 04:36:00
11:53 PM,34.0,28.9,82,29.82,1.2,ESE,8.1,-,0.00,Snow,Light Snow,110,2013-03-06 04:53:00